Torna al catalogo

IMPULSE-1 MIRA

AttivoScienzaSSO
NORAD 58301·PAYLOAD·🇺🇸 United States

Lanciato Nov 11, 2023 da Vandenberg Space Force Base

Loading…

Prossimi Passaggi (prossime 24 ore)

TLE

AggiornatoSource: Space-Track

Epoca: Sep 14, 2026, 05:07 UTC

1 58301U 23174AX  26257.21323449  .00012020  00000-0  30547-3 0  9991
2 58301  97.5155 344.6130 0070230 162.7521 197.6133 15.37219114158567

Traccia IMPULSE-1 MIRA in tempo reale con AllMySat

Download on the App Store